Погода в Моисееве-Алабушке

Россия / Тамбовская область     51°54′52″N   42°05′05″E
темп.,
°C
ветер,
м/с
пор.,
м/с
влажн.,
%
обл.,
%
осадки,
мм/ч
давл.,
гПа
погр.,
м
7 марта, вс
вс700:00−13зсз489528 0.0 1017141
03:00−14з459414 0.0 101787
06:00−14зюз479611 0.0 1017106
09:00−10юз599337 0.0 1016265
12:00−5юз8138677 0.0 1014923
15:00−3юз9157989 0.0 10101003
18:00−3юз91871100 0.0 10061090
21:00−3зюз101892100 0.2 10031043
8 марта, пн
пн800:00−2зюз101792100 1.1 10021086
03:00−2зсз61089100 1.9 1003487
06:00−6зюз4118990 0.0 1004212
09:00−4зюз598695 0.0 1003568
12:00−2зюз61091100 1.2 1003829
15:00−2з7128086 1.2 10041116
18:00−6зсз410860 0.0 1007208
21:00−10зсз33890 0.0 100924
9 марта, вт
вт900:00−12з12900 0.0 101021
03:00−13з11920 0.0 101021
06:00−12ссз119460 0.0 101021
09:00−10с229480 0.2 1011114
12:00−8ссз3491100 0.1 1012353
15:00−7сз5790100 0.3 1013592
18:00−12сз5119267 0.0 1015275
21:00−15сз5119542 0.0 1018232
10 марта, ср
ср1000:00−17сз499738 0.0 1020164
03:00−19зсз479852 0.0 1022120
06:00−20зсз489840 0.0 1023138
09:00−19сз599420 0.0 1024274
12:00−16сз479044 0.0 1025454
15:00−15сз468855 0.0 1026493
18:00−19сз349438 0.0 102666
21:00−22с349447 0.0 102855
11 марта, чт
чт1100:00−23ссв239527 0.0 102920
03:00−24ссв239414 0.0 103020
06:00−25ссв23930 0.0 103120
09:00−22св23910 0.0 1033121
12:00−18ссв11810 0.0 1033325
15:00−16сз12780 0.0 1033355
18:00−20ссз22880 0.0 103320
21:00−21ссз22960 0.0 103520